User: anonymous   Login
Location: Unspecified
(0.0000°N, 0.0000°E)
Time: 23:38:04
(UTC+00:00)
Language:

WGS 6 (USA 244) - Orbit

View from above orbital plane
View from above orbital plane
View from above satellite
View from above satellite

Ground track
Ground track

The orbit data is extracted from the following two-line orbital elements,

1 39222U 13041A   17320.94721037 0.00000000  00000-0  00000-0 0    06
2 39222   0.0300 261.8423 0003453   9.5644 350.4682  1.00270000    00
Epoch (UTC): 16 November 2017 22:43:58
Eccentricity: 0.0003453
inclination: 0.0300°
perigee height: 35772 km
apogee height: 35801 km
right ascension of ascending node: 261.8423°
argument of perigee: 9.5644°
revolutions per day: 1.00270000
mean anomaly at epoch: 350.4682°
orbit number at epoch: 0

The dashed part of the orbit path shows where the satellite is in the earth's shadow,  

DLR